カタログに戻る

CZ-8A R/B

運用中LEO
NORAD 100212·ROCKET BODY·🇨🇳 China

打ち上げ Aug 4, 2026 から Wenchang Space Launch Site

Loading…

次のパス (今後24時間)

TLE

最新Source: Space-Track

元期: Sep 14, 2026, 22:24 UTC

1 A0212U 26176K   26257.93352682 -.00000661  00000-0 -57887-3 0  9990
2 A0212  49.9941 235.2020 0143474  24.6345 336.1311 13.67078821  5695

AllMySatでCZ-8A R/Bをリアルタイム追跡

Download on the App Store